owner,sensor,date,latitude,longitude,sea_surface_height_above_sea_level,qcFlag 
WAVCIS,ioos:station:WAVCIS:CSI16:1,2009-05-01T00:00:00Z,29.4012,-89.0355,9.435,11111222 
WAVCIS,ioos:station:WAVCIS:CSI16:1,2009-05-01T01:00:00Z,29.4012,-89.0355,9.359,11111222 
WAVCIS,ioos:station:WAVCIS:CSI16:1,2009-05-01T02:00:00Z,29.4012,-89.0355,9.306,11111222 
WAVCIS,ioos:station:WAVCIS:CSI16:1,2009-05-01T03:00:00Z,29.4012,-89.0355,9.264,11111222 
WAVCIS,ioos:station:WAVCIS:CSI16:1,2009-05-01T04:00:00Z,29.4012,-89.0355,9.228,11111222 
WAVCIS,ioos:station:WAVCIS:CSI16:1,2009-05-01T05:00:00Z,29.4012,-89.0355,9.214,11111222 
WAVCIS,ioos:station:WAVCIS:CSI16:1,2009-05-01T06:00:00Z,29.4012,-89.0355,9.212,11111222 
WAVCIS,ioos:station:WAVCIS:CSI16:1,2009-05-01T07:00:00Z,29.4012,-89.0355,9.22,11111222 
WAVCIS,ioos:station:WAVCIS:CSI16:1,2009-05-01T08:00:00Z,29.4012,-89.0355,9.224,11111222 
WAVCIS,ioos:station:WAVCIS:CSI16:1,2009-05-01T09:00:00Z,29.4012,-89.0355,9.268,11111222 
WAVCIS,ioos:station:WAVCIS:CSI16:1,2009-05-01T10:00:00Z,29.4012,-89.0355,9.308,11111222 
WAVCIS,ioos:station:WAVCIS:CSI16:1,2009-05-01T11:00:00Z,29.4012,-89.0355,9.366,11111222 
WAVCIS,ioos:station:WAVCIS:CSI16:1,2009-05-01T12:00:00Z,29.4012,-89.0355,9.42,11111222 
WAVCIS,ioos:station:WAVCIS:CSI16:1,2009-05-01T13:00:00Z,29.4012,-89.0355,9.453,11111222 
WAVCIS,ioos:station:WAVCIS:CSI16:1,2009-05-01T14:00:00Z,29.4012,-89.0355,9.514,11111222 
WAVCIS,ioos:station:WAVCIS:CSI16:1,2009-05-01T15:00:00Z,29.4012,-89.0355,9.552,11111222 
WAVCIS,ioos:station:WAVCIS:CSI16:1,2009-05-01T16:00:00Z,29.4012,-89.0355,9.58,11111222 
WAVCIS,ioos:station:WAVCIS:CSI16:1,2009-05-01T17:00:00Z,29.4012,-89.0355,9.609,11111222 
WAVCIS,ioos:station:WAVCIS:CSI16:1,2009-05-01T18:00:00Z,29.4012,-89.0355,9.62,11111222 
WAVCIS,ioos:station:WAVCIS:CSI16:1,2009-05-01T19:00:00Z,29.4012,-89.0355,9.613,11111222 
WAVCIS,ioos:station:WAVCIS:CSI16:1,2009-05-01T20:00:00Z,29.4012,-89.0355,9.607,11111222 
WAVCIS,ioos:station:WAVCIS:CSI16:1,2009-05-01T21:00:00Z,29.4012,-89.0355,9.589,11111222 
WAVCIS,ioos:station:WAVCIS:CSI16:1,2009-05-01T22:00:00Z,29.4012,-89.0355,9.561,11111222 
WAVCIS,ioos:station:WAVCIS:CSI16:1,2009-05-01T23:00:00Z,29.4012,-89.0355,9.534,11111222 
WAVCIS,ioos:station:WAVCIS:CSI16:1,2009-05-02T00:00:00Z,29.4012,-89.0355,9.479,11111222 
WAVCIS,ioos:station:WAVCIS:CSI16:1,2009-05-02T01:00:00Z,29.4012,-89.0355,9.418,11111222 
WAVCIS,ioos:station:WAVCIS:CSI16:1,2009-05-02T02:00:00Z,29.4012,-89.0355,9.364,11111222 
WAVCIS,ioos:station:WAVCIS:CSI16:1,2009-05-02T03:00:00Z,29.4012,-89.0355,9.316,11111222 
WAVCIS,ioos:station:WAVCIS:CSI16:1,2009-05-02T04:00:00Z,29.4012,-89.0355,9.283,11111222 
WAVCIS,ioos:station:WAVCIS:CSI16:1,2009-05-02T05:00:00Z,29.4012,-89.0355,9.246,11111222 
WAVCIS,ioos:station:WAVCIS:CSI16:1,2009-05-02T06:00:00Z,29.4012,-89.0355,9.224,11111222 
WAVCIS,ioos:station:WAVCIS:CSI16:1,2009-05-02T07:00:00Z,29.4012,-89.0355,9.221,11111222 
WAVCIS,ioos:station:WAVCIS:CSI16:1,2009-05-02T08:00:00Z,29.4012,-89.0355,9.224,11111222 
WAVCIS,ioos:station:WAVCIS:CSI16:1,2009-05-02T09:00:00Z,29.4012,-89.0355,9.243,11111222 
WAVCIS,ioos:station:WAVCIS:CSI16:1,2009-05-02T10:00:00Z,29.4012,-89.0355,9.285,11111222 
WAVCIS,ioos:station:WAVCIS:CSI16:1,2009-05-02T11:00:00Z,29.4012,-89.0355,9.333,11111222 
WAVCIS,ioos:station:WAVCIS:CSI16:1,2009-05-02T12:00:00Z,29.4012,-89.0355,9.373,11111222 
WAVCIS,ioos:station:WAVCIS:CSI16:1,2009-05-02T13:00:00Z,29.4012,-89.0355,9.402,11111222 
WAVCIS,ioos:station:WAVCIS:CSI16:1,2009-05-02T14:00:00Z,29.4012,-89.0355,9.44,11111222 
WAVCIS,ioos:station:WAVCIS:CSI16:1,2009-05-02T15:00:00Z,29.4012,-89.0355,9.464,11111222 
WAVCIS,ioos:station:WAVCIS:CSI16:1,2009-05-02T16:00:00Z,29.4012,-89.0355,9.487,11111222 
WAVCIS,ioos:station:WAVCIS:CSI16:1,2009-05-02T17:00:00Z,29.4012,-89.0355,9.497,11111222 
WAVCIS,ioos:station:WAVCIS:CSI16:1,2009-05-02T18:00:00Z,29.4012,-89.0355,9.514,11111222 
WAVCIS,ioos:station:WAVCIS:CSI16:1,2009-05-02T19:00:00Z,29.4012,-89.0355,9.521,11111222 
WAVCIS,ioos:station:WAVCIS:CSI16:1,2009-05-02T20:00:00Z,29.4012,-89.0355,9.506,11111222 
WAVCIS,ioos:station:WAVCIS:CSI16:1,2009-05-02T21:00:00Z,29.4012,-89.0355,9.495,11111222 
WAVCIS,ioos:station:WAVCIS:CSI16:1,2009-05-02T22:00:00Z,29.4012,-89.0355,9.492,11111222 
WAVCIS,ioos:station:WAVCIS:CSI16:1,2009-05-02T23:00:00Z,29.4012,-89.0355,9.483,11111222 
WAVCIS,ioos:station:WAVCIS:CSI16:1,2009-05-03T00:00:00Z,29.4012,-89.0355,9.464,11111222 
WAVCIS,ioos:station:WAVCIS:CSI16:1,2009-05-03T01:00:00Z,29.4012,-89.0355,9.447,11111222 
WAVCIS,ioos:station:WAVCIS:CSI16:1,2009-05-03T02:00:00Z,29.4012,-89.0355,9.413,11111222 
WAVCIS,ioos:station:WAVCIS:CSI16:1,2009-05-03T03:00:00Z,29.4012,-89.0355,9.386,11111222 
WAVCIS,ioos:station:WAVCIS:CSI16:1,2009-05-03T04:00:00Z,29.4012,-89.0355,9.361,11111222 
WAVCIS,ioos:station:WAVCIS:CSI16:1,2009-05-03T05:00:00Z,29.4012,-89.0355,9.338,11111222 
WAVCIS,ioos:station:WAVCIS:CSI16:1,2009-05-03T06:00:00Z,29.4012,-89.0355,9.345,11111222 
WAVCIS,ioos:station:WAVCIS:CSI16:1,2009-05-03T07:00:00Z,29.4012,-89.0355,9.341,11111222 
WAVCIS,ioos:station:WAVCIS:CSI16:1,2009-05-03T08:00:00Z,29.4012,-89.0355,9.334,11111222 
WAVCIS,ioos:station:WAVCIS:CSI16:1,2009-05-03T09:00:00Z,29.4012,-89.0355,9.349,11111222 
WAVCIS,ioos:station:WAVCIS:CSI16:1,2009-05-03T10:00:00Z,29.4012,-89.0355,9.361,11111222 
WAVCIS,ioos:station:WAVCIS:CSI16:1,2009-05-03T11:00:00Z,29.4012,-89.0355,9.385,11111222 
WAVCIS,ioos:station:WAVCIS:CSI16:1,2009-05-03T12:00:00Z,29.4012,-89.0355,9.419,11111222 
WAVCIS,ioos:station:WAVCIS:CSI16:1,2009-05-03T13:00:00Z,29.4012,-89.0355,9.459,11111222 
WAVCIS,ioos:station:WAVCIS:CSI16:1,2009-05-03T14:00:00Z,29.4012,-89.0355,9.466,11111222 
WAVCIS,ioos:station:WAVCIS:CSI16:1,2009-05-03T15:00:00Z,29.4012,-89.0355,9.458,11111222 
WAVCIS,ioos:station:WAVCIS:CSI16:1,2009-05-03T16:00:00Z,29.4012,-89.0355,9.445,11111222 
WAVCIS,ioos:station:WAVCIS:CSI16:1,2009-05-03T17:00:00Z,29.4012,-89.0355,9.449,11111222 
WAVCIS,ioos:station:WAVCIS:CSI16:1,2009-05-03T18:00:00Z,29.4012,-89.0355,9.453,11111222 
WAVCIS,ioos:station:WAVCIS:CSI16:1,2009-05-03T19:00:00Z,29.4012,-89.0355,9.453,11111222 
WAVCIS,ioos:station:WAVCIS:CSI16:1,2009-05-03T20:00:00Z,29.4012,-89.0355,9.449,11111222 
WAVCIS,ioos:station:WAVCIS:CSI16:1,2009-05-03T21:00:00Z,29.4012,-89.0355,9.419,11111222 
WAVCIS,ioos:station:WAVCIS:CSI16:1,2009-05-03T22:00:00Z,29.4012,-89.0355,9.394,11111222 
WAVCIS,ioos:station:WAVCIS:CSI16:1,2009-05-03T23:00:00Z,29.4012,-89.0355,9.42,11111222 
WAVCIS,ioos:station:WAVCIS:CSI16:1,2009-05-04T00:00:00Z,29.4012,-89.0355,9.411,11111222 
WAVCIS,ioos:station:WAVCIS:CSI16:1,2009-05-04T01:00:00Z,29.4012,-89.0355,9.368,11111222 
WAVCIS,ioos:station:WAVCIS:CSI16:1,2009-05-04T02:00:00Z,29.4012,-89.0355,9.361,11111222 
WAVCIS,ioos:station:WAVCIS:CSI16:1,2009-05-04T03:00:00Z,29.4012,-89.0355,9.348,11111222 
WAVCIS,ioos:station:WAVCIS:CSI16:1,2009-05-04T04:00:00Z,29.4012,-89.0355,9.334,11111222 
WAVCIS,ioos:station:WAVCIS:CSI16:1,2009-05-04T05:00:00Z,29.4012,-89.0355,9.346,11111222 
WAVCIS,ioos:station:WAVCIS:CSI16:1,2009-05-04T06:00:00Z,29.4012,-89.0355,9.34,11111222 
WAVCIS,ioos:station:WAVCIS:CSI16:1,2009-05-04T07:00:00Z,29.4012,-89.0355,9.325,11111222 
WAVCIS,ioos:station:WAVCIS:CSI16:1,2009-05-04T08:00:00Z,29.4012,-89.0355,9.322,11111222 
WAVCIS,ioos:station:WAVCIS:CSI16:1,2009-05-04T09:00:00Z,29.4012,-89.0355,9.323,11111222 
WAVCIS,ioos:station:WAVCIS:CSI16:1,2009-05-04T10:00:00Z,29.4012,-89.0355,9.345,11111222 
WAVCIS,ioos:station:WAVCIS:CSI16:1,2009-05-04T11:00:00Z,29.4012,-89.0355,9.37,11111222 
WAVCIS,ioos:station:WAVCIS:CSI16:1,2009-05-04T12:00:00Z,29.4012,-89.0355,9.397,11111222 
WAVCIS,ioos:station:WAVCIS:CSI16:1,2009-05-04T13:00:00Z,29.4012,-89.0355,9.413,11111222 
WAVCIS,ioos:station:WAVCIS:CSI16:1,2009-05-04T14:00:00Z,29.4012,-89.0355,9.418,11111222 
WAVCIS,ioos:station:WAVCIS:CSI16:1,2009-05-04T15:00:00Z,29.4012,-89.0355,9.397,11111222 
WAVCIS,ioos:station:WAVCIS:CSI16:1,2009-05-04T16:00:00Z,29.4012,-89.0355,9.386,11111222 
WAVCIS,ioos:station:WAVCIS:CSI16:1,2009-05-04T17:00:00Z,29.4012,-89.0355,9.336,11111222 
WAVCIS,ioos:station:WAVCIS:CSI16:1,2009-05-04T18:00:00Z,29.4012,-89.0355,9.321,11111222 
WAVCIS,ioos:station:WAVCIS:CSI16:1,2009-05-04T19:00:00Z,29.4012,-89.0355,9.242,11111222 
WAVCIS,ioos:station:WAVCIS:CSI16:1,2009-05-04T20:00:00Z,29.4012,-89.0355,9.306,11111222 
WAVCIS,ioos:station:WAVCIS:CSI16:1,2009-05-04T21:00:00Z,29.4012,-89.0355,9.246,11111222 
WAVCIS,ioos:station:WAVCIS:CSI16:1,2009-05-04T22:00:00Z,29.4012,-89.0355,9.273,11111222 
WAVCIS,ioos:station:WAVCIS:CSI16:1,2009-05-04T23:00:00Z,29.4012,-89.0355,9.281,11111222 
WAVCIS,ioos:station:WAVCIS:CSI16:1,2009-05-05T00:00:00Z,29.4012,-89.0355,9.29,11111222 
WAVCIS,ioos:station:WAVCIS:CSI16:1,2009-05-05T01:00:00Z,29.4012,-89.0355,9.323,11111222 
WAVCIS,ioos:station:WAVCIS:CSI16:1,2009-05-05T02:00:00Z,29.4012,-89.0355,9.333,11111222 
WAVCIS,ioos:station:WAVCIS:CSI16:1,2009-05-05T03:00:00Z,29.4012,-89.0355,9.344,11111222 
WAVCIS,ioos:station:WAVCIS:CSI16:1,2009-05-05T04:00:00Z,29.4012,-89.0355,9.356,11111222 
WAVCIS,ioos:station:WAVCIS:CSI16:1,2009-05-05T05:00:00Z,29.4012,-89.0355,9.379,11111222 
WAVCIS,ioos:station:WAVCIS:CSI16:1,2009-05-05T06:00:00Z,29.4012,-89.0355,9.384,11111222 
WAVCIS,ioos:station:WAVCIS:CSI16:1,2009-05-05T07:00:00Z,29.4012,-89.0355,9.408,11111222 
WAVCIS,ioos:station:WAVCIS:CSI16:1,2009-05-05T08:00:00Z,29.4012,-89.0355,9.419,11111222 
WAVCIS,ioos:station:WAVCIS:CSI16:1,2009-05-05T09:00:00Z,29.4012,-89.0355,9.448,11111222 
WAVCIS,ioos:station:WAVCIS:CSI16:1,2009-05-05T10:00:00Z,29.4012,-89.0355,9.466,11111222 
WAVCIS,ioos:station:WAVCIS:CSI16:1,2009-05-05T11:00:00Z,29.4012,-89.0355,9.486,11111222 
WAVCIS,ioos:station:WAVCIS:CSI16:1,2009-05-05T12:00:00Z,29.4012,-89.0355,9.511,11111222 
WAVCIS,ioos:station:WAVCIS:CSI16:1,2009-05-05T13:00:00Z,29.4012,-89.0355,9.515,11111222 
WAVCIS,ioos:station:WAVCIS:CSI16:1,2009-05-05T14:00:00Z,29.4012,-89.0355,9.507,11111222 
WAVCIS,ioos:station:WAVCIS:CSI16:1,2009-05-05T15:00:00Z,29.4012,-89.0355,9.486,11111222 
WAVCIS,ioos:station:WAVCIS:CSI16:1,2009-05-05T16:00:00Z,29.4012,-89.0355,9.461,11111222 
WAVCIS,ioos:station:WAVCIS:CSI16:1,2009-05-05T17:00:00Z,29.4012,-89.0355,9.415,11111222 
WAVCIS,ioos:station:WAVCIS:CSI16:1,2009-05-05T18:00:00Z,29.4012,-89.0355,9.363,11111222 
WAVCIS,ioos:station:WAVCIS:CSI16:1,2009-05-05T19:00:00Z,29.4012,-89.0355,9.324,11111222 
WAVCIS,ioos:station:WAVCIS:CSI16:1,2009-05-05T20:00:00Z,29.4012,-89.0355,9.289,11111222 
WAVCIS,ioos:station:WAVCIS:CSI16:1,2009-05-05T21:00:00Z,29.4012,-89.0355,9.261,11111222 
WAVCIS,ioos:station:WAVCIS:CSI16:1,2009-05-05T22:00:00Z,29.4012,-89.0355,9.259,11111222 
WAVCIS,ioos:station:WAVCIS:CSI16:1,2009-05-05T23:00:00Z,29.4012,-89.0355,9.248,11111222 
WAVCIS,ioos:station:WAVCIS:CSI16:1,2009-05-06T00:00:00Z,29.4012,-89.0355,9.25,11111222 
WAVCIS,ioos:station:WAVCIS:CSI16:1,2009-05-06T01:00:00Z,29.4012,-89.0355,9.271,11111222 
WAVCIS,ioos:station:WAVCIS:CSI16:1,2009-05-06T02:00:00Z,29.4012,-89.0355,9.312,11111222 
WAVCIS,ioos:station:WAVCIS:CSI16:1,2009-05-06T03:00:00Z,29.4012,-89.0355,9.317,11111222 
WAVCIS,ioos:station:WAVCIS:CSI16:1,2009-05-06T04:00:00Z,29.4012,-89.0355,9.339,11111222 
WAVCIS,ioos:station:WAVCIS:CSI16:1,2009-05-06T05:00:00Z,29.4012,-89.0355,9.366,11111222 
WAVCIS,ioos:station:WAVCIS:CSI16:1,2009-05-06T06:00:00Z,29.4012,-89.0355,9.377,11111222 
WAVCIS,ioos:station:WAVCIS:CSI16:1,2009-05-06T07:00:00Z,29.4012,-89.0355,9.394,11111222 
WAVCIS,ioos:station:WAVCIS:CSI16:1,2009-05-06T08:00:00Z,29.4012,-89.0355,9.42,11111222 
WAVCIS,ioos:station:WAVCIS:CSI16:1,2009-05-06T09:00:00Z,29.4012,-89.0355,9.438,11111222 
WAVCIS,ioos:station:WAVCIS:CSI16:1,2009-05-06T10:00:00Z,29.4012,-89.0355,9.458,11111222 
WAVCIS,ioos:station:WAVCIS:CSI16:1,2009-05-06T11:00:00Z,29.4012,-89.0355,9.474,11111222 
WAVCIS,ioos:station:WAVCIS:CSI16:1,2009-05-06T12:00:00Z,29.4012,-89.0355,9.488,11111222 
WAVCIS,ioos:station:WAVCIS:CSI16:1,2009-05-06T13:00:00Z,29.4012,-89.0355,9.486,11111222 
WAVCIS,ioos:station:WAVCIS:CSI16:1,2009-05-06T14:00:00Z,29.4012,-89.0355,9.472,11111222 
WAVCIS,ioos:station:WAVCIS:CSI16:1,2009-05-06T15:00:00Z,29.4012,-89.0355,9.447,11111222 
WAVCIS,ioos:station:WAVCIS:CSI16:1,2009-05-06T16:00:00Z,29.4012,-89.0355,9.399,11111222 
WAVCIS,ioos:station:WAVCIS:CSI16:1,2009-05-06T17:00:00Z,29.4012,-89.0355,9.343,11111222 
WAVCIS,ioos:station:WAVCIS:CSI16:1,2009-05-06T18:00:00Z,29.4012,-89.0355,9.293,11111222 
WAVCIS,ioos:station:WAVCIS:CSI16:1,2009-05-06T19:00:00Z,29.4012,-89.0355,9.236,11111222 
WAVCIS,ioos:station:WAVCIS:CSI16:1,2009-05-06T20:00:00Z,29.4012,-89.0355,9.186,11111222 
WAVCIS,ioos:station:WAVCIS:CSI16:1,2009-05-06T21:00:00Z,29.4012,-89.0355,9.149,11111222 
WAVCIS,ioos:station:WAVCIS:CSI16:1,2009-05-06T22:00:00Z,29.4012,-89.0355,9.143,11111222 
WAVCIS,ioos:station:WAVCIS:CSI16:1,2009-05-06T23:00:00Z,29.4012,-89.0355,9.131,11111222 
WAVCIS,ioos:station:WAVCIS:CSI16:1,2009-05-07T00:00:00Z,29.4012,-89.0355,9.126,11111222 
WAVCIS,ioos:station:WAVCIS:CSI16:1,2009-05-07T01:00:00Z,29.4012,-89.0355,9.142,11111222 
WAVCIS,ioos:station:WAVCIS:CSI16:1,2009-05-07T02:00:00Z,29.4012,-89.0355,9.187,11111222 
WAVCIS,ioos:station:WAVCIS:CSI16:1,2009-05-07T03:00:00Z,29.4012,-89.0355,9.242,11111222 
WAVCIS,ioos:station:WAVCIS:CSI16:1,2009-05-07T04:00:00Z,29.4012,-89.0355,9.28,11111222 
WAVCIS,ioos:station:WAVCIS:CSI16:1,2009-05-07T05:00:00Z,29.4012,-89.0355,9.322,11111222 
WAVCIS,ioos:station:WAVCIS:CSI16:1,2009-05-07T06:00:00Z,29.4012,-89.0355,9.364,11111222 
WAVCIS,ioos:station:WAVCIS:CSI16:1,2009-05-07T07:00:00Z,29.4012,-89.0355,9.39,11111222 
WAVCIS,ioos:station:WAVCIS:CSI16:1,2009-05-07T08:00:00Z,29.4012,-89.0355,9.431,11111222 
WAVCIS,ioos:station:WAVCIS:CSI16:1,2009-05-07T09:00:00Z,29.4012,-89.0355,9.454,11111222 
WAVCIS,ioos:station:WAVCIS:CSI16:1,2009-05-07T10:00:00Z,29.4012,-89.0355,9.478,11111222 
WAVCIS,ioos:station:WAVCIS:CSI16:1,2009-05-07T11:00:00Z,29.4012,-89.0355,9.505,11111222 
WAVCIS,ioos:station:WAVCIS:CSI16:1,2009-05-07T12:00:00Z,29.4012,-89.0355,9.506,11111222 
WAVCIS,ioos:station:WAVCIS:CSI16:1,2009-05-07T13:00:00Z,29.4012,-89.0355,9.505,11111222 
WAVCIS,ioos:station:WAVCIS:CSI16:1,2009-05-07T14:00:00Z,29.4012,-89.0355,9.497,11111222 
WAVCIS,ioos:station:WAVCIS:CSI16:1,2009-05-07T15:00:00Z,29.4012,-89.0355,9.47,11111222 
WAVCIS,ioos:station:WAVCIS:CSI16:1,2009-05-07T16:00:00Z,29.4012,-89.0355,9.418,11111222 
WAVCIS,ioos:station:WAVCIS:CSI16:1,2009-05-07T17:00:00Z,29.4012,-89.0355,9.363,11111222 
WAVCIS,ioos:station:WAVCIS:CSI16:1,2009-05-07T18:00:00Z,29.4012,-89.0355,9.286,11111222 
WAVCIS,ioos:station:WAVCIS:CSI16:1,2009-05-07T19:00:00Z,29.4012,-89.0355,9.194,11111222 
WAVCIS,ioos:station:WAVCIS:CSI16:1,2009-05-07T20:00:00Z,29.4012,-89.0355,9.12,11111222 
WAVCIS,ioos:station:WAVCIS:CSI16:1,2009-05-07T21:00:00Z,29.4012,-89.0355,9.076,11111222 
WAVCIS,ioos:station:WAVCIS:CSI16:1,2009-05-07T22:00:00Z,29.4012,-89.0355,9.047,11111222 
WAVCIS,ioos:station:WAVCIS:CSI16:1,2009-05-07T23:00:00Z,29.4012,-89.0355,9.019,11111222 
WAVCIS,ioos:station:WAVCIS:CSI16:1,2009-05-08T00:00:00Z,29.4012,-89.0355,9.018,11111222 
WAVCIS,ioos:station:WAVCIS:CSI16:1,2009-05-08T01:00:00Z,29.4012,-89.0355,9.038,11111222 
WAVCIS,ioos:station:WAVCIS:CSI16:1,2009-05-08T02:00:00Z,29.4012,-89.0355,9.076,11111222 
WAVCIS,ioos:station:WAVCIS:CSI16:1,2009-05-08T03:00:00Z,29.4012,-89.0355,9.127,11111222 
WAVCIS,ioos:station:WAVCIS:CSI16:1,2009-05-08T04:00:00Z,29.4012,-89.0355,9.165,11111222 
WAVCIS,ioos:station:WAVCIS:CSI16:1,2009-05-08T05:00:00Z,29.4012,-89.0355,9.212,11111222 
WAVCIS,ioos:station:WAVCIS:CSI16:1,2009-05-08T06:00:00Z,29.4012,-89.0355,9.272,11111222 
WAVCIS,ioos:station:WAVCIS:CSI16:1,2009-05-08T07:00:00Z,29.4012,-89.0355,9.315,11111222 
WAVCIS,ioos:station:WAVCIS:CSI16:1,2009-05-08T08:00:00Z,29.4012,-89.0355,9.363,11111222 
WAVCIS,ioos:station:WAVCIS:CSI16:1,2009-05-08T09:00:00Z,29.4012,-89.0355,9.405,11111222 
WAVCIS,ioos:station:WAVCIS:CSI16:1,2009-05-08T10:00:00Z,29.4012,-89.0355,9.458,11111222 
WAVCIS,ioos:station:WAVCIS:CSI16:1,2009-05-08T11:00:00Z,29.4012,-89.0355,9.508,11111222 
WAVCIS,ioos:station:WAVCIS:CSI16:1,2009-05-08T12:00:00Z,29.4012,-89.0355,9.54,11111222 
WAVCIS,ioos:station:WAVCIS:CSI16:1,2009-05-08T13:00:00Z,29.4012,-89.0355,9.55,11111222 
WAVCIS,ioos:station:WAVCIS:CSI16:1,2009-05-08T14:00:00Z,29.4012,-89.0355,9.558,11111222 
WAVCIS,ioos:station:WAVCIS:CSI16:1,2009-05-08T15:00:00Z,29.4012,-89.0355,9.532,11111222 
WAVCIS,ioos:station:WAVCIS:CSI16:1,2009-05-08T16:00:00Z,29.4012,-89.0355,9.495,11111222 
WAVCIS,ioos:station:WAVCIS:CSI16:1,2009-05-08T17:00:00Z,29.4012,-89.0355,9.443,11111222 
WAVCIS,ioos:station:WAVCIS:CSI16:1,2009-05-08T18:00:00Z,29.4012,-89.0355,9.368,11111222 
WAVCIS,ioos:station:WAVCIS:CSI16:1,2009-05-08T19:00:00Z,29.4012,-89.0355,9.277,11111222 
WAVCIS,ioos:station:WAVCIS:CSI16:1,2009-05-08T20:00:00Z,29.4012,-89.0355,9.182,11111222 
WAVCIS,ioos:station:WAVCIS:CSI16:1,2009-05-08T21:00:00Z,29.4012,-89.0355,9.098,11111222 
WAVCIS,ioos:station:WAVCIS:CSI16:1,2009-05-08T22:00:00Z,29.4012,-89.0355,9.056,11111222 
WAVCIS,ioos:station:WAVCIS:CSI16:1,2009-05-08T23:00:00Z,29.4012,-89.0355,9.035,11111222 
WAVCIS,ioos:station:WAVCIS:CSI16:1,2009-05-09T00:00:00Z,29.4012,-89.0355,9.026,11111222 
WAVCIS,ioos:station:WAVCIS:CSI16:1,2009-05-09T01:00:00Z,29.4012,-89.0355,9.041,11111222 
WAVCIS,ioos:station:WAVCIS:CSI16:1,2009-05-09T02:00:00Z,29.4012,-89.0355,9.066,11111222 
WAVCIS,ioos:station:WAVCIS:CSI16:1,2009-05-09T03:00:00Z,29.4012,-89.0355,9.112,11111222 
WAVCIS,ioos:station:WAVCIS:CSI16:1,2009-05-09T04:00:00Z,29.4012,-89.0355,9.166,11111222 
WAVCIS,ioos:station:WAVCIS:CSI16:1,2009-05-09T05:00:00Z,29.4012,-89.0355,9.214,11111222 
WAVCIS,ioos:station:WAVCIS:CSI16:1,2009-05-09T06:00:00Z,29.4012,-89.0355,9.266,11111222 
WAVCIS,ioos:station:WAVCIS:CSI16:1,2009-05-09T07:00:00Z,29.4012,-89.0355,9.342,11111222 
WAVCIS,ioos:station:WAVCIS:CSI16:1,2009-05-09T08:00:00Z,29.4012,-89.0355,9.4,11111222 
WAVCIS,ioos:station:WAVCIS:CSI16:1,2009-05-09T09:00:00Z,29.4012,-89.0355,9.452,11111222 
WAVCIS,ioos:station:WAVCIS:CSI16:1,2009-05-09T10:00:00Z,29.4012,-89.0355,9.508,11111222 
WAVCIS,ioos:station:WAVCIS:CSI16:1,2009-05-09T11:00:00Z,29.4012,-89.0355,9.564,11111222 
WAVCIS,ioos:station:WAVCIS:CSI16:1,2009-05-09T12:00:00Z,29.4012,-89.0355,9.616,11111222 
WAVCIS,ioos:station:WAVCIS:CSI16:1,2009-05-09T13:00:00Z,29.4012,-89.0355,9.645,11111222 
WAVCIS,ioos:station:WAVCIS:CSI16:1,2009-05-09T14:00:00Z,29.4012,-89.0355,9.641,11111222 
WAVCIS,ioos:station:WAVCIS:CSI16:1,2009-05-09T15:00:00Z,29.4012,-89.0355,9.614,11111222 
WAVCIS,ioos:station:WAVCIS:CSI16:1,2009-05-09T16:00:00Z,29.4012,-89.0355,9.586,11111222 
WAVCIS,ioos:station:WAVCIS:CSI16:1,2009-05-09T17:00:00Z,29.4012,-89.0355,9.51,11111222 
WAVCIS,ioos:station:WAVCIS:CSI16:1,2009-05-09T18:00:00Z,29.4012,-89.0355,9.44,11111222 
WAVCIS,ioos:station:WAVCIS:CSI16:1,2009-05-09T19:00:00Z,29.4012,-89.0355,9.329,11111222 
WAVCIS,ioos:station:WAVCIS:CSI16:1,2009-05-09T20:00:00Z,29.4012,-89.0355,9.244,11111222 
WAVCIS,ioos:station:WAVCIS:CSI16:1,2009-05-09T21:00:00Z,29.4012,-89.0355,9.134,11111222 
WAVCIS,ioos:station:WAVCIS:CSI16:1,2009-05-09T22:00:00Z,29.4012,-89.0355,9.054,11111222 
WAVCIS,ioos:station:WAVCIS:CSI16:1,2009-05-09T23:00:00Z,29.4012,-89.0355,9.011,11111222 
WAVCIS,ioos:station:WAVCIS:CSI16:1,2009-05-10T00:00:00Z,29.4012,-89.0355,8.994,11111222 
WAVCIS,ioos:station:WAVCIS:CSI16:1,2009-05-10T01:00:00Z,29.4012,-89.0355,8.985,11111222 
WAVCIS,ioos:station:WAVCIS:CSI16:1,2009-05-10T02:00:00Z,29.4012,-89.0355,9.005,11111222 
WAVCIS,ioos:station:WAVCIS:CSI16:1,2009-05-10T03:00:00Z,29.4012,-89.0355,9.029,11111222 
WAVCIS,ioos:station:WAVCIS:CSI16:1,2009-05-10T04:00:00Z,29.4012,-89.0355,9.06,11111222 
WAVCIS,ioos:station:WAVCIS:CSI16:1,2009-05-10T05:00:00Z,29.4012,-89.0355,9.11,11111222 
WAVCIS,ioos:station:WAVCIS:CSI16:1,2009-05-10T06:00:00Z,29.4012,-89.0355,9.18,11111222 
WAVCIS,ioos:station:WAVCIS:CSI16:1,2009-05-10T07:00:00Z,29.4012,-89.0355,9.242,11111222 
WAVCIS,ioos:station:WAVCIS:CSI16:1,2009-05-10T08:00:00Z,29.4012,-89.0355,9.305,11111222 
WAVCIS,ioos:station:WAVCIS:CSI16:1,2009-05-10T09:00:00Z,29.4012,-89.0355,9.354,11111222 
WAVCIS,ioos:station:WAVCIS:CSI16:1,2009-05-10T10:00:00Z,29.4012,-89.0355,9.423,11111222 
WAVCIS,ioos:station:WAVCIS:CSI16:1,2009-05-10T11:00:00Z,29.4012,-89.0355,9.487,11111222 
WAVCIS,ioos:station:WAVCIS:CSI16:1,2009-05-10T12:00:00Z,29.4012,-89.0355,9.539,11111222 
WAVCIS,ioos:station:WAVCIS:CSI16:1,2009-05-10T13:00:00Z,29.4012,-89.0355,9.589,11111222 
WAVCIS,ioos:station:WAVCIS:CSI16:1,2009-05-10T14:00:00Z,29.4012,-89.0355,9.601,11111222 
WAVCIS,ioos:station:WAVCIS:CSI16:1,2009-05-10T15:00:00Z,29.4012,-89.0355,9.591,11111222 
WAVCIS,ioos:station:WAVCIS:CSI16:1,2009-05-10T16:00:00Z,29.4012,-89.0355,9.572,11111222 
WAVCIS,ioos:station:WAVCIS:CSI16:1,2009-05-10T17:00:00Z,29.4012,-89.0355,9.533,11111222 
WAVCIS,ioos:station:WAVCIS:CSI16:1,2009-05-10T18:00:00Z,29.4012,-89.0355,9.471,11111222 
WAVCIS,ioos:station:WAVCIS:CSI16:1,2009-05-10T19:00:00Z,29.4012,-89.0355,9.391,11111222 
WAVCIS,ioos:station:WAVCIS:CSI16:1,2009-05-10T20:00:00Z,29.4012,-89.0355,9.295,11111222 
WAVCIS,ioos:station:WAVCIS:CSI16:1,2009-05-10T21:00:00Z,29.4012,-89.0355,9.191,11111222 
WAVCIS,ioos:station:WAVCIS:CSI16:1,2009-05-10T22:00:00Z,29.4012,-89.0355,9.103,11111222 
WAVCIS,ioos:station:WAVCIS:CSI16:1,2009-05-10T23:00:00Z,29.4012,-89.0355,9.05,11111222 
WAVCIS,ioos:station:WAVCIS:CSI16:1,2009-05-11T00:00:00Z,29.4012,-89.0355,9.02,11111222 
WAVCIS,ioos:station:WAVCIS:CSI16:1,2009-05-11T01:00:00Z,29.4012,-89.0355,9.002,11111222 
WAVCIS,ioos:station:WAVCIS:CSI16:1,2009-05-11T02:00:00Z,29.4012,-89.0355,9.008,11111222 
WAVCIS,ioos:station:WAVCIS:CSI16:1,2009-05-11T03:00:00Z,29.4012,-89.0355,9.039,11111222 
WAVCIS,ioos:station:WAVCIS:CSI16:1,2009-05-11T04:00:00Z,29.4012,-89.0355,9.074,11111222 
WAVCIS,ioos:station:WAVCIS:CSI16:1,2009-05-11T05:00:00Z,29.4012,-89.0355,9.107,11111222 
WAVCIS,ioos:station:WAVCIS:CSI16:1,2009-05-11T06:00:00Z,29.4012,-89.0355,9.145,11111222 
WAVCIS,ioos:station:WAVCIS:CSI16:1,2009-05-11T07:00:00Z,29.4012,-89.0355,9.215,11111222 
WAVCIS,ioos:station:WAVCIS:CSI16:1,2009-05-11T08:00:00Z,29.4012,-89.0355,9.27,11111222 
WAVCIS,ioos:station:WAVCIS:CSI16:1,2009-05-11T09:00:00Z,29.4012,-89.0355,9.338,11111222 
WAVCIS,ioos:station:WAVCIS:CSI16:1,2009-05-11T10:00:00Z,29.4012,-89.0355,9.404,11111222 
WAVCIS,ioos:station:WAVCIS:CSI16:1,2009-05-11T11:00:00Z,29.4012,-89.0355,9.464,11111222 
WAVCIS,ioos:station:WAVCIS:CSI16:1,2009-05-11T12:00:00Z,29.4012,-89.0355,9.523,11111222 
WAVCIS,ioos:station:WAVCIS:CSI16:1,2009-05-11T13:00:00Z,29.4012,-89.0355,9.584,11111222 
WAVCIS,ioos:station:WAVCIS:CSI16:1,2009-05-11T14:00:00Z,29.4012,-89.0355,9.61,11111222 
WAVCIS,ioos:station:WAVCIS:CSI16:1,2009-05-11T15:00:00Z,29.4012,-89.0355,9.601,11111222 
WAVCIS,ioos:station:WAVCIS:CSI16:1,2009-05-11T16:00:00Z,29.4012,-89.0355,9.596,11111222 
WAVCIS,ioos:station:WAVCIS:CSI16:1,2009-05-11T17:00:00Z,29.4012,-89.0355,9.571,11111222 
WAVCIS,ioos:station:WAVCIS:CSI16:1,2009-05-11T19:00:00Z,29.4012,-89.0355,9.447,11111222 
WAVCIS,ioos:station:WAVCIS:CSI16:1,2009-05-11T20:00:00Z,29.4012,-89.0355,9.348,11111222 
WAVCIS,ioos:station:WAVCIS:CSI16:1,2009-05-11T21:00:00Z,29.4012,-89.0355,9.255,11111222 
WAVCIS,ioos:station:WAVCIS:CSI16:1,2009-05-11T22:00:00Z,29.4012,-89.0355,9.17,11111222 
WAVCIS,ioos:station:WAVCIS:CSI16:1,2009-05-11T23:00:00Z,29.4012,-89.0355,9.088,11111222 
WAVCIS,ioos:station:WAVCIS:CSI16:1,2009-05-12T00:00:00Z,29.4012,-89.0355,9.053,11111222 
WAVCIS,ioos:station:WAVCIS:CSI16:1,2009-05-12T01:00:00Z,29.4012,-89.0355,9.022,11111222 
WAVCIS,ioos:station:WAVCIS:CSI16:1,2009-05-12T02:00:00Z,29.4012,-89.0355,8.994,11111222 
WAVCIS,ioos:station:WAVCIS:CSI16:1,2009-05-12T03:00:00Z,29.4012,-89.0355,8.984,11111222 
WAVCIS,ioos:station:WAVCIS:CSI16:1,2009-05-12T04:00:00Z,29.4012,-89.0355,8.974,11111222 
WAVCIS,ioos:station:WAVCIS:CSI16:1,2009-05-12T05:00:00Z,29.4012,-89.0355,9.035,11111222 